This is the latest recevied weather packets stored in our database for station/object OK1VCF-8. If no packets are shown the sender has not sent any weather packets the latest 10 day(s).
| Time | Temp. | Humidity | Pressure | Rain* | Wind** | Luminosity | Snow |
|---|---|---|---|---|---|---|---|
| 1777449521 | 11.11° C | 34% | 1027.1 hPa | - | - | - | - |
| 1777449083 | 10° C | 34% | 1027.2 hPa | - | - | - | - |
| 1777448644 | 10.56° C | 35% | 1027.1 hPa | - | - | - | - |
| 1777448207 | 10.56° C | 36% | 1027.2 hPa | - | - | - | - |
| 1777447604 | 10° C | 39% | 1027 hPa | - | - | - | - |
| 1777447164 | 10° C | 38% | 1027 hPa | - | - | - | - |
| 1777446711 | 8.89° C | 38% | 1027 hPa | - | - | - | - |
| 1777445375 | 8.33° C | 42% | 1027 hPa | - | - | - | - |
| 1777444919 | 7.78° C | 42% | 1027 hPa | - | - | - | - |
| 1777444465 | 7.78° C | 42% | 1027.1 hPa | - | - | - | - |
| 1777444009 | 7.78° C | 44% | 1027 hPa | - | - | - | - |
| 1777442694 | 7.22° C | 45% | 1026.9 hPa | - | - | - | - |
| 1777442239 | 6.67° C | 48% | 1026.9 hPa | - | - | - | - |
| 1777441795 | 6.67° C | 48% | 1026.8 hPa | - | - | - | - |
| 1777441357 | 6.67° C | 50% | 1026.8 hPa | - | - | - | - |
| 1777440752 | 6.11° C | 50% | 1026.8 hPa | - | - | - | - |
| 1777440312 | 5.56° C | 50% | 1026.8 hPa | - | - | - | - |
| 1777439874 | 5.56° C | 52% | 1026.7 hPa | - | - | - | - |
| 1777439438 | 5.56° C | 54% | 1026.6 hPa | - | - | - | - |
| 1777439000 | 5° C | 58% | 1026.5 hPa | - | - | - | - |
| 1777438558 | 5° C | 55% | 1026.6 hPa | - | - | - | - |
| 1777438119 | 4.44° C | 58% | 1026.4 hPa | - | - | - | - |
| 1777437680 | 4.44° C | 56% | 1026.4 hPa | - | - | - | - |
| 1777437242 | 4.44° C | 57% | 1026.3 hPa | - | - | - | - |
| 1777436802 | 3.89° C | 56% | 1026.2 hPa | - | - | - | - |
* Rain since midnight (hover to see other rain measurements)
** Current wind speed in m/s (hover to see current wind gust speed)